Time,TemperatureF,DewpointF,PressureIn,WindDirection,WindDirectionDegrees,WindSpeedMPH,WindSpeedGustMPH,Humidity,HourlyPrecipIn,Conditions,Clouds,dailyrainin,SoftwareType,DateUTC
2013-07-27 00:01:00,71.9,0.0,30.05,SE,136,0.0,0.0,0,0.00,,OVC043,0.00,VWS V14.01,2013-07-27 04:01:00,
2013-07-27 00:02:00,71.9,0.0,30.05,SE,136,0.0,0.0,0,0.00,,OVC043,0.00,VWS V14.01,2013-07-27 04:02:00,
2013-07-27 00:07:00,71.9,0.0,30.05,SE,136,0.0,1.0,0,0.00,,OVC043,0.00,VWS V14.01,2013-07-27 04:07:00,
2013-07-27 00:12:00,72.0,0.0,30.05,SE,136,0.0,1.0,0,0.00,,OVC043,0.00,VWS V14.01,2013-07-27 04:12:00,
2013-07-27 00:17:00,72.0,0.0,30.05,SE,136,0.0,1.0,0,0.00,,OVC043,0.00,VWS V14.01,2013-07-27 04:17:00,
2013-07-27 00:22:00,72.0,0.0,30.05,SE,136,0.0,1.0,0,0.00,,OVC043,0.00,VWS V14.01,2013-07-27 04:22:00,
2013-07-27 00:27:00,71.9,0.0,30.04,SE,136,0.0,1.0,0,0.00,,OVC043,0.00,VWS V14.01,2013-07-27 04:27:00,
2013-07-27 00:32:00,71.9,0.0,30.04,SE,136,0.0,0.0,0,0.00,,OVC043,0.00,VWS V14.01,2013-07-27 04:32:00,
2013-07-27 00:37:00,71.9,0.0,30.04,SE,136,0.0,0.0,0,0.00,,OVC043,0.00,VWS V14.01,2013-07-27 04:37:00,
2013-07-27 00:42:00,71.8,0.0,30.04,SE,136,0.0,0.0,0,0.00,,OVC043,0.00,VWS V14.01,2013-07-27 04:42:00,
2013-07-27 00:47:00,71.7,0.0,30.04,SE,136,0.0,0.0,0,0.00,,OVC043,0.00,VWS V14.01,2013-07-27 04:47:00,
2013-07-27 00:52:00,71.6,0.0,30.04,SE,136,0.0,0.0,0,0.00,,OVC043,0.00,VWS V14.01,2013-07-27 04:52:00,
2013-07-27 00:57:00,71.6,0.0,30.05,SE,136,0.0,0.0,0,0.00,,OVC043,0.00,VWS V14.01,2013-07-27 04:57:00,
2013-07-27 01:02:00,71.4,0.0,30.04,SE,136,0.0,0.0,0,0.00,,OVC043,0.00,VWS V14.01,2013-07-27 05:02:00,
2013-07-27 01:07:00,71.2,0.0,30.04,SE,136,0.0,0.0,0,0.00,,OVC043,0.00,VWS V14.01,2013-07-27 05:07:00,
2013-07-27 01:12:00,71.1,0.0,30.04,SE,136,0.0,1.0,0,0.00,,OVC043,0.00,VWS V14.01,2013-07-27 05:12:00,
2013-07-27 01:17:00,70.9,0.0,30.04,SE,136,0.0,1.0,0,0.00,,OVC043,0.00,VWS V14.01,2013-07-27 05:17:00,
2013-07-27 01:22:00,70.9,0.0,30.04,SE,136,0.0,1.0,0,0.00,,OVC043,0.00,VWS V14.01,2013-07-27 05:22:00,
2013-07-27 01:27:00,70.8,0.0,30.04,SE,136,0.0,1.0,0,0.00,,OVC043,0.00,VWS V14.01,2013-07-27 05:27:00,
2013-07-27 01:32:00,70.8,0.0,30.03,SE,136,0.0,0.0,0,0.00,,OVC043,0.00,VWS V14.01,2013-07-27 05:32:00,
2013-07-27 01:37:00,70.9,0.0,30.03,SE,136,0.0,0.0,0,0.00,,OVC043,0.00,VWS V14.01,2013-07-27 05:37:00,
2013-07-27 01:42:00,70.9,0.0,30.03,SE,136,0.0,1.0,0,0.00,,OVC043,0.00,VWS V14.01,2013-07-27 05:42:00,
2013-07-27 01:47:00,70.9,0.0,30.03,SE,136,0.0,1.0,0,0.00,,OVC043,0.00,VWS V14.01,2013-07-27 05:47:00,
2013-07-27 01:52:00,70.8,0.0,30.02,SE,136,0.0,1.0,0,0.00,,OVC043,0.00,VWS V14.01,2013-07-27 05:52:00,
2013-07-27 01:57:00,70.8,0.0,30.02,SE,137,0.0,1.0,0,0.00,,OVC043,0.00,VWS V14.01,2013-07-27 05:57:00,
2013-07-27 02:02:00,70.7,0.0,30.02,SE,137,0.0,0.0,0,0.00,,OVC043,0.00,VWS V14.01,2013-07-27 06:02:00,
2013-07-27 02:07:00,70.7,0.0,30.02,SE,136,0.0,1.0,0,0.00,,OVC043,0.00,VWS V14.01,2013-07-27 06:07:00,
2013-07-27 02:12:00,70.6,0.0,30.02,SE,137,0.0,1.0,0,0.00,,OVC043,0.00,VWS V14.01,2013-07-27 06:12:00,
2013-07-27 02:17:00,70.6,0.0,30.02,SE,136,0.0,1.0,0,0.00,,OVC043,0.00,VWS V14.01,2013-07-27 06:17:00,
2013-07-27 02:22:00,70.6,0.0,30.01,SE,136,0.0,1.0,0,0.00,,OVC043,0.00,VWS V14.01,2013-07-27 06:22:00,
2013-07-27 02:27:00,70.5,0.0,30.01,SE,136,0.0,1.0,0,0.00,,OVC043,0.00,VWS V14.01,2013-07-27 06:27:00,
2013-07-27 02:32:00,70.5,0.0,30.01,SE,136,0.0,0.0,0,0.00,,OVC043,0.00,VWS V14.01,2013-07-27 06:32:00,
2013-07-27 02:37:00,70.5,0.0,30.01,SE,137,0.0,1.0,0,0.00,,OVC043,0.00,VWS V14.01,2013-07-27 06:37:00,
2013-07-27 02:42:00,70.5,0.0,30.01,SE,136,0.0,1.0,0,0.00,,OVC043,0.00,VWS V14.01,2013-07-27 06:42:00,
2013-07-27 02:47:00,70.6,0.0,30.01,SE,136,0.0,1.0,0,0.00,,OVC043,0.00,VWS V14.01,2013-07-27 06:47:00,
2013-07-27 02:52:00,70.6,0.0,30.00,SE,136,0.0,1.0,0,0.00,,OVC043,0.00,VWS V14.01,2013-07-27 06:52:00,
2013-07-27 02:57:00,70.7,0.0,30.00,SE,137,0.0,1.0,0,0.00,,OVC043,0.00,VWS V14.01,2013-07-27 06:57:00,
2013-07-27 03:02:00,70.6,0.0,30.00,SE,137,0.0,0.0,0,0.00,,OVC043,0.00,VWS V14.01,2013-07-27 07:02:00,
2013-07-27 03:07:00,70.6,0.0,30.01,SE,136,0.0,0.0,0,0.00,,OVC043,0.00,VWS V14.01,2013-07-27 07:07:00,
2013-07-27 03:12:00,70.7,0.0,30.01,SE,136,0.0,1.0,0,0.00,,OVC043,0.00,VWS V14.01,2013-07-27 07:12:00,
2013-07-27 03:17:00,70.9,0.0,30.01,SE,137,0.0,1.0,0,0.00,,OVC043,0.00,VWS V14.01,2013-07-27 07:17:00,
2013-07-27 03:22:00,71.1,0.0,30.01,SW,224,1.0,1.0,0,0.00,,OVC043,0.00,VWS V14.01,2013-07-27 07:22:00,
2013-07-27 03:27:00,71.4,0.0,30.01,SSE,158,0.0,2.0,0,0.00,,OVC043,0.00,VWS V14.01,2013-07-27 07:27:00,
2013-07-27 03:32:00,71.7,0.0,30.01,SSW,193,0.0,0.0,0,0.00,,OVC043,0.00,VWS V14.01,2013-07-27 07:32:00,
2013-07-27 03:37:00,71.7,0.0,30.01,South,191,0.0,1.0,0,0.00,,OVC043,0.00,VWS V14.01,2013-07-27 07:37:00,
2013-07-27 03:42:00,71.7,0.0,30.01,SE,129,3.0,5.0,0,0.05,,OVC043,0.05,VWS V14.01,2013-07-27 07:42:00,
2013-07-27 03:47:00,71.4,0.0,30.01,South,190,1.0,5.0,0,0.08,,OVC043,0.08,VWS V14.01,2013-07-27 07:47:00,
2013-07-27 03:52:00,71.1,0.0,30.01,ESE,113,1.0,5.0,0,0.09,,OVC043,0.09,VWS V14.01,2013-07-27 07:52:00,
2013-07-27 03:57:00,70.6,0.0,30.01,South,188,0.0,5.0,0,0.09,,OVC043,0.09,VWS V14.01,2013-07-27 07:57:00,
2013-07-27 04:02:00,70.5,0.0,30.01,SSE,156,0.0,0.0,0,0.09,,OVC043,0.09,VWS V14.01,2013-07-27 08:02:00,
2013-07-27 04:07:00,70.5,0.0,30.00,SSE,156,0.0,0.0,0,0.09,,OVC043,0.09,VWS V14.01,2013-07-27 08:07:00,
2013-07-27 04:12:00,70.3,0.0,30.00,SSE,156,0.0,0.0,0,0.09,,OVC043,0.09,VWS V14.01,2013-07-27 08:12:00,
2013-07-27 04:17:00,70.2,0.0,30.00,SSE,156,0.0,0.0,0,0.09,,OVC043,0.09,VWS V14.01,2013-07-27 08:17:00,
2013-07-27 04:22:00,70.1,0.0,29.99,ENE,68,0.0,1.0,0,0.10,,OVC043,0.10,VWS V14.01,2013-07-27 08:22:00,
2013-07-27 04:27:00,70.0,0.0,29.99,ENE,70,0.0,1.0,0,0.10,,OVC043,0.10,VWS V14.01,2013-07-27 08:27:00,
2013-07-27 04:32:00,69.9,0.0,30.00,ENE,68,0.0,1.0,0,0.10,,OVC043,0.10,VWS V14.01,2013-07-27 08:32:00,
2013-07-27 04:37:00,69.7,0.0,29.99,ENE,69,0.0,1.0,0,0.11,,OVC043,0.11,VWS V14.01,2013-07-27 08:37:00,
2013-07-27 04:42:00,69.6,0.0,29.99,ENE,70,0.0,1.0,0,0.11,,OVC043,0.11,VWS V14.01,2013-07-27 08:42:00,
2013-07-27 04:47:00,69.5,0.0,29.99,ENE,70,0.0,1.0,0,0.11,,OVC043,0.11,VWS V14.01,2013-07-27 08:47:00,
2013-07-27 04:52:00,69.4,0.0,29.99,ENE,70,0.0,1.0,0,0.11,,OVC043,0.11,VWS V14.01,2013-07-27 08:52:00,
2013-07-27 04:57:00,69.3,0.0,29.99,ENE,69,0.0,1.0,0,0.11,,OVC043,0.11,VWS V14.01,2013-07-27 08:57:00,
2013-07-27 05:02:00,69.4,0.0,30.00,SSE,166,0.0,1.0,0,0.02,,OVC043,0.11,VWS V14.01,2013-07-27 09:02:00,
2013-07-27 05:07:00,69.3,0.0,30.00,SSE,166,0.0,1.0,0,0.02,,OVC043,0.11,VWS V14.01,2013-07-27 09:07:00,
2013-07-27 05:12:00,69.4,0.0,30.00,SSE,166,0.0,1.0,0,0.02,,OVC043,0.11,VWS V14.01,2013-07-27 09:12:00,
2013-07-27 05:17:00,69.4,0.0,30.01,South,172,0.0,1.0,0,0.03,,OVC043,0.12,VWS V14.01,2013-07-27 09:17:00,
2013-07-27 05:22:00,69.4,0.0,30.01,South,173,0.0,1.0,0,0.05,,OVC043,0.14,VWS V14.01,2013-07-27 09:22:00,
2013-07-27 05:27:00,69.5,0.0,30.01,SSW,195,0.0,1.0,0,0.07,,OVC043,0.16,VWS V14.01,2013-07-27 09:27:00,
2013-07-27 05:32:00,69.5,0.0,30.00,SSW,195,0.0,0.0,0,0.08,,OVC043,0.18,VWS V14.01,2013-07-27 09:32:00,
2013-07-27 05:37:00,69.5,0.0,30.01,SSW,195,0.0,0.0,0,0.08,,OVC043,0.18,VWS V14.01,2013-07-27 09:37:00,
2013-07-27 05:42:00,69.4,0.0,30.01,SSW,195,0.0,0.0,0,0.11,,OVC043,0.21,VWS V14.01,2013-07-27 09:42:00,
2013-07-27 05:47:00,69.4,0.0,30.01,SSW,195,0.0,0.0,0,0.14,,OVC043,0.24,VWS V14.01,2013-07-27 09:47:00,
2013-07-27 05:52:00,69.4,0.0,30.01,SSW,194,0.0,0.0,0,0.18,,OVC043,0.28,VWS V14.01,2013-07-27 09:52:00,
2013-07-27 05:57:00,69.4,0.0,30.01,SSW,194,0.0,0.0,0,0.20,,OVC043,0.30,VWS V14.01,2013-07-27 09:57:00,
2013-07-27 06:02:00,69.4,0.0,30.01,SSW,194,0.0,0.0,0,0.21,,OVC043,0.32,VWS V14.01,2013-07-27 10:02:00,
2013-07-27 06:07:00,69.5,0.0,30.01,SSW,194,0.0,0.0,0,0.24,,OVC043,0.35,VWS V14.01,2013-07-27 10:07:00,
2013-07-27 06:12:00,69.5,0.0,30.01,SSW,194,0.0,0.0,0,0.27,,OVC043,0.38,VWS V14.01,2013-07-27 10:12:00,
2013-07-27 06:17:00,69.5,0.0,30.02,SSW,194,0.0,0.0,0,0.29,,OVC043,0.40,VWS V14.01,2013-07-27 10:17:00,
2013-07-27 06:22:00,69.4,0.0,30.02,SSW,194,0.0,0.0,0,0.31,,OVC043,0.42,VWS V14.01,2013-07-27 10:22:00,
2013-07-27 06:27:00,69.4,0.0,30.02,SSW,194,0.0,0.0,0,0.35,,OVC043,0.46,VWS V14.01,2013-07-27 10:27:00,
2013-07-27 06:32:00,69.3,0.0,30.03,South,190,0.0,0.0,0,0.44,,OVC043,0.61,VWS V14.01,2013-07-27 10:32:00,
2013-07-27 06:37:00,69.2,0.0,30.02,SSW,192,0.0,0.0,0,0.67,,OVC043,0.84,VWS V14.01,2013-07-27 10:37:00,
2013-07-27 06:42:00,69.1,0.0,30.02,East,80,0.0,1.0,0,0.80,,OVC043,0.97,VWS V14.01,2013-07-27 10:42:00,
2013-07-27 06:47:00,69.0,0.0,30.01,East,81,0.0,1.0,0,0.88,,OVC043,1.05,VWS V14.01,2013-07-27 10:47:00,
2013-07-27 06:52:00,68.9,0.0,30.01,East,81,0.0,1.0,0,0.97,,OVC043,1.14,VWS V14.01,2013-07-27 10:52:00,
2013-07-27 06:57:00,68.8,0.0,30.01,SSE,158,0.0,1.0,0,1.00,,OVC043,1.17,VWS V14.01,2013-07-27 10:57:00,
2013-07-27 07:02:00,68.8,0.0,30.01,SSE,158,0.0,0.0,0,0.87,,OVC043,1.18,VWS V14.01,2013-07-27 11:02:00,
2013-07-27 07:07:00,68.8,0.0,30.01,SSE,158,0.0,0.0,0,0.88,,OVC043,1.19,VWS V14.01,2013-07-27 11:07:00,
2013-07-27 07:12:00,68.8,0.0,30.01,SSE,158,0.0,0.0,0,0.88,,OVC043,1.19,VWS V14.01,2013-07-27 11:12:00,
2013-07-27 07:17:00,68.8,0.0,30.01,SSE,159,0.0,1.0,0,0.88,,OVC043,1.19,VWS V14.01,2013-07-27 11:17:00,
2013-07-27 07:22:00,68.8,0.0,30.02,SSE,164,0.0,1.0,0,0.88,,OVC043,1.19,VWS V14.01,2013-07-27 11:22:00,
2013-07-27 07:27:00,68.8,0.0,30.01,SSE,164,0.0,1.0,0,0.88,,OVC043,1.19,VWS V14.01,2013-07-27 11:27:00,
2013-07-27 07:32:00,68.8,0.0,30.01,ENE,70,1.0,1.0,0,0.65,,OVC043,1.19,VWS V14.01,2013-07-27 11:32:00,
2013-07-27 07:37:00,68.8,0.0,30.01,NE,55,0.0,1.0,0,0.65,,OVC043,1.19,VWS V14.01,2013-07-27 11:37:00,
2013-07-27 07:42:00,68.8,0.0,30.01,ENE,63,0.0,1.0,0,0.65,,OVC043,1.19,VWS V14.01,2013-07-27 11:42:00,
2013-07-27 07:47:00,68.8,0.0,30.01,ENE,64,0.0,2.0,0,0.65,,OVC043,1.19,VWS V14.01,2013-07-27 11:47:00,
2013-07-27 07:52:00,68.8,0.0,30.00,ENE,64,0.0,2.0,0,0.65,,OVC043,1.19,VWS V14.01,2013-07-27 11:52:00,
2013-07-27 07:57:00,68.9,0.0,30.01,ENE,64,0.0,2.0,0,0.65,,OVC043,1.19,VWS V14.01,2013-07-27 11:57:00,
2013-07-27 08:02:00,69.0,0.0,30.01,SSW,193,1.0,1.0,0,0.02,,OVC043,1.19,VWS V14.01,2013-07-27 12:02:00,
2013-07-27 08:07:00,69.1,0.0,30.01,SW,235,0.0,1.0,0,0.02,,OVC043,1.19,VWS V14.01,2013-07-27 12:07:00,
2013-07-27 08:12:00,69.0,0.0,30.01,SSW,208,0.0,1.0,0,0.02,,OVC043,1.19,VWS V14.01,2013-07-27 12:12:00,
2013-07-27 08:17:00,69.1,0.0,30.01,SSW,208,0.0,1.0,0,0.02,,OVC043,1.19,VWS V14.01,2013-07-27 12:17:00,
2013-07-27 08:22:00,69.1,0.0,30.01,SSE,160,0.0,1.0,0,0.04,,OVC043,1.21,VWS V14.01,2013-07-27 12:22:00,
2013-07-27 08:27:00,69.1,0.0,30.02,SSW,212,0.0,1.0,0,0.07,,OVC043,1.24,VWS V14.01,2013-07-27 12:27:00,
2013-07-27 08:32:00,69.2,0.0,30.02,SSW,212,0.0,0.0,0,0.10,,OVC043,1.29,VWS V14.01,2013-07-27 12:32:00,
2013-07-27 08:37:00,69.2,0.0,30.02,SW,214,0.0,1.0,0,0.27,,OVC043,1.46,VWS V14.01,2013-07-27 12:37:00,
2013-07-27 08:42:00,69.2,0.0,30.03,SE,143,0.0,1.0,0,0.40,,OVC043,1.59,VWS V14.01,2013-07-27 12:42:00,
2013-07-27 08:47:00,69.1,0.0,30.02,SE,145,0.0,1.0,0,0.62,,OVC043,1.81,VWS V14.01,2013-07-27 12:47:00,
2013-07-27 08:52:00,69.1,0.0,30.02,SSW,197,0.0,1.0,0,0.81,,OVC043,2.00,VWS V14.01,2013-07-27 12:52:00,
2013-07-27 08:57:00,69.0,0.0,30.02,SSW,198,0.0,2.0,0,0.97,,OVC043,2.16,VWS V14.01,2013-07-27 12:57:00,
2013-07-27 09:02:00,69.0,0.0,30.01,SW,234,0.0,1.0,0,1.07,,OVC043,2.26,VWS V14.01,2013-07-27 13:02:00,
2013-07-27 09:07:00,69.0,0.0,30.01,SSW,205,0.0,4.0,0,1.12,,OVC043,2.31,VWS V14.01,2013-07-27 13:07:00,
2013-07-27 09:12:00,69.1,0.0,30.01,SSW,195,0.0,4.0,0,1.14,,OVC043,2.33,VWS V14.01,2013-07-27 13:12:00,
2013-07-27 09:17:00,69.2,0.0,30.01,SSW,195,0.0,4.0,0,1.14,,OVC043,2.33,VWS V14.01,2013-07-27 13:17:00,
2013-07-27 09:22:00,69.1,0.0,30.01,SW,221,0.0,4.0,0,1.21,,OVC043,2.40,VWS V14.01,2013-07-27 13:22:00,
2013-07-27 09:27:00,69.1,0.0,30.02,West,263,0.0,4.0,0,1.25,,OVC043,2.44,VWS V14.01,2013-07-27 13:27:00,
2013-07-27 09:32:00,69.0,0.0,30.02,West,261,0.0,0.0,0,1.28,,OVC043,2.53,VWS V14.01,2013-07-27 13:32:00,
2013-07-27 09:37:00,69.1,0.0,30.01,West,262,0.0,1.0,0,1.29,,OVC043,2.54,VWS V14.01,2013-07-27 13:37:00,
2013-07-27 09:42:00,69.0,0.0,30.01,NE,55,0.0,1.0,0,1.30,,OVC043,2.55,VWS V14.01,2013-07-27 13:42:00,
2013-07-27 09:47:00,68.7,0.0,30.01,South,188,0.0,1.0,0,1.32,,OVC043,2.57,VWS V14.01,2013-07-27 13:47:00,
2013-07-27 09:52:00,68.6,0.0,30.01,South,184,0.0,2.0,0,1.33,,OVC043,2.58,VWS V14.01,2013-07-27 13:52:00,
2013-07-27 09:57:00,68.6,0.0,30.01,South,184,0.0,2.0,0,1.34,,OVC043,2.59,VWS V14.01,2013-07-27 13:57:00,
2013-07-27 10:02:00,68.6,0.0,30.01,South,184,0.0,0.0,0,0.41,,OVC043,2.60,VWS V14.01,2013-07-27 14:02:00,
2013-07-27 10:07:00,68.6,0.0,30.01,South,184,0.0,0.0,0,0.42,,OVC043,2.61,VWS V14.01,2013-07-27 14:07:00,
2013-07-27 10:12:00,68.8,0.0,30.01,South,184,0.0,0.0,0,0.43,,OVC043,2.62,VWS V14.01,2013-07-27 14:12:00,
2013-07-27 10:17:00,68.8,0.0,30.01,South,184,0.0,0.0,0,0.43,,OVC043,2.62,VWS V14.01,2013-07-27 14:17:00,
2013-07-27 10:22:00,69.0,0.0,30.00,SSE,154,0.0,0.0,0,0.43,,OVC043,2.62,VWS V14.01,2013-07-27 14:22:00,
2013-07-27 10:27:00,69.4,0.0,30.00,SSE,155,0.0,1.0,0,0.43,,OVC043,2.62,VWS V14.01,2013-07-27 14:27:00,
2013-07-27 10:32:00,69.6,0.0,30.01,SSE,155,0.0,0.0,0,0.14,,OVC043,2.63,VWS V14.01,2013-07-27 14:32:00,
2013-07-27 10:37:00,69.5,0.0,30.01,SSE,155,0.0,0.0,0,0.14,,OVC043,2.63,VWS V14.01,2013-07-27 14:37:00,
2013-07-27 10:42:00,69.6,0.0,30.01,SSE,155,0.0,0.0,0,0.14,,OVC043,2.63,VWS V14.01,2013-07-27 14:42:00,
2013-07-27 10:47:00,69.7,0.0,30.01,SSE,155,0.0,0.0,0,0.14,,OVC043,2.63,VWS V14.01,2013-07-27 14:47:00,
2013-07-27 10:52:00,69.9,0.0,30.01,SSE,155,0.0,0.0,0,0.14,,OVC043,2.63,VWS V14.01,2013-07-27 14:52:00,
2013-07-27 10:57:00,69.9,0.0,30.01,SSE,155,0.0,0.0,0,0.14,,OVC043,2.63,VWS V14.01,2013-07-27 14:57:00,
2013-07-27 11:02:00,69.9,0.0,30.01,SSE,155,0.0,0.0,0,0.04,,OVC043,2.64,VWS V14.01,2013-07-27 15:02:00,
2013-07-27 11:07:00,69.9,0.0,30.01,SSE,155,0.0,0.0,0,0.04,,OVC043,2.64,VWS V14.01,2013-07-27 15:07:00,
2013-07-27 11:12:00,69.8,0.0,30.01,SSE,155,0.0,0.0,0,0.04,,OVC043,2.64,VWS V14.01,2013-07-27 15:12:00,
2013-07-27 11:17:00,69.8,0.0,30.01,SSE,155,0.0,0.0,0,0.05,,OVC043,2.65,VWS V14.01,2013-07-27 15:17:00,
2013-07-27 11:22:00,69.9,0.0,30.00,South,172,0.0,1.0,0,0.10,,OVC043,2.70,VWS V14.01,2013-07-27 15:22:00,
2013-07-27 11:27:00,69.8,0.0,30.00,South,172,0.0,1.0,0,0.12,,OVC043,2.72,VWS V14.01,2013-07-27 15:27:00,
2013-07-27 11:32:00,69.9,0.0,30.00,South,172,0.0,0.0,0,0.10,,OVC043,2.72,VWS V14.01,2013-07-27 15:32:00,
2013-07-27 11:37:00,70.0,0.0,30.00,South,172,0.0,0.0,0,0.10,,OVC043,2.72,VWS V14.01,2013-07-27 15:37:00,
2013-07-27 11:43:00,70.3,0.0,30.00,South,172,0.0,0.0,0,0.10,,OVC043,2.72,VWS V14.01,2013-07-27 15:43:00,
2013-07-27 11:48:00,70.4,0.0,30.00,South,172,0.0,0.0,0,0.10,,OVC043,2.72,VWS V14.01,2013-07-27 15:48:00,
2013-07-27 11:53:00,70.6,0.0,30.01,South,172,0.0,0.0,0,0.10,,OVC043,2.72,VWS V14.01,2013-07-27 15:53:00,
2013-07-27 11:58:00,70.7,0.0,30.01,South,172,0.0,0.0,0,0.10,,OVC043,2.72,VWS V14.01,2013-07-27 15:58:00,
2013-07-27 12:03:00,70.8,0.0,30.01,South,172,0.0,0.0,0,0.09,,OVC043,2.72,VWS V14.01,2013-07-27 16:03:00,
2013-07-27 12:08:00,70.8,0.0,30.01,South,170,0.0,0.0,0,0.09,,OVC043,2.72,VWS V14.01,2013-07-27 16:08:00,
2013-07-27 12:13:00,70.9,0.0,30.01,South,170,0.0,0.0,0,0.09,,OVC043,2.72,VWS V14.01,2013-07-27 16:13:00,
2013-07-27 12:18:00,70.9,0.0,30.01,South,170,0.0,0.0,0,0.10,,OVC043,2.73,VWS V14.01,2013-07-27 16:18:00,
2013-07-27 12:23:00,70.9,0.0,30.01,South,170,0.0,0.0,0,0.11,,OVC043,2.74,VWS V14.01,2013-07-27 16:23:00,
2013-07-27 12:27:00,70.9,0.0,30.01,South,170,0.0,0.0,0,0.12,,OVC043,2.75,VWS V14.01,2013-07-27 16:27:00,
2013-07-27 12:32:00,71.1,0.0,30.01,South,170,0.0,0.0,0,0.03,,OVC043,2.75,VWS V14.01,2013-07-27 16:32:00,
2013-07-27 12:37:00,71.3,0.0,30.00,South,170,0.0,0.0,0,0.03,,OVC043,2.75,VWS V14.01,2013-07-27 16:37:00,
2013-07-27 12:42:00,71.7,0.0,30.00,South,170,0.0,0.0,0,0.04,,OVC043,2.76,VWS V14.01,2013-07-27 16:42:00,
2013-07-27 12:47:00,71.6,0.0,30.00,SSE,154,0.0,0.0,0,0.04,,OVC043,2.76,VWS V14.01,2013-07-27 16:47:00,
2013-07-27 12:52:00,71.4,0.0,30.00,SSE,154,0.0,0.0,0,0.04,,OVC043,2.76,VWS V14.01,2013-07-27 16:52:00,
2013-07-27 12:57:00,71.2,0.0,29.99,ENE,77,0.0,2.0,0,0.04,,OVC043,2.76,VWS V14.01,2013-07-27 16:57:00,
2013-07-27 13:02:00,71.6,0.0,29.99,ENE,77,0.0,0.0,0,0.04,,OVC043,2.76,VWS V14.01,2013-07-27 17:02:00,
2013-07-27 13:08:00,71.8,0.0,29.99,ENE,77,0.0,1.0,0,0.04,,OVC043,2.76,VWS V14.01,2013-07-27 17:08:00,
2013-07-27 13:13:00,72.0,0.0,29.98,ENE,77,0.0,1.0,0,0.05,,OVC043,2.77,VWS V14.01,2013-07-27 17:13:00,
2013-07-27 13:18:00,72.3,0.0,29.98,ENE,76,0.0,1.0,0,0.05,,OVC043,2.77,VWS V14.01,2013-07-27 17:18:00,
2013-07-27 13:23:00,72.3,0.0,29.98,ENE,77,0.0,1.0,0,0.05,,OVC043,2.77,VWS V14.01,2013-07-27 17:23:00,
2013-07-27 13:28:00,72.5,0.0,29.99,ENE,77,0.0,1.0,0,0.05,,OVC043,2.77,VWS V14.01,2013-07-27 17:28:00,
2013-07-27 13:33:00,72.3,0.0,29.99,SSW,198,1.0,3.0,0,0.02,,OVC043,2.77,VWS V14.01,2013-07-27 17:33:00,
2013-07-27 13:38:00,72.5,0.0,29.99,SSW,205,0.0,3.0,0,0.02,,OVC043,2.77,VWS V14.01,2013-07-27 17:38:00,
2013-07-27 13:43:00,72.5,0.0,29.98,SSW,198,0.0,3.0,0,0.02,,OVC043,2.77,VWS V14.01,2013-07-27 17:43:00,
2013-07-27 13:48:00,72.8,0.0,29.98,SSW,198,0.0,3.0,0,0.02,,OVC043,2.77,VWS V14.01,2013-07-27 17:48:00,
2013-07-27 13:53:00,72.7,0.0,29.98,SSW,204,0.0,3.0,0,0.02,,OVC043,2.77,VWS V14.01,2013-07-27 17:53:00,
2013-07-27 13:58:00,73.1,0.0,29.98,South,186,0.0,3.0,0,0.02,,OVC043,2.77,VWS V14.01,2013-07-27 17:58:00,
2013-07-27 14:03:00,72.9,0.0,29.97,South,187,1.0,3.0,0,0.01,,OVC043,2.77,VWS V14.01,2013-07-27 18:03:00,
2013-07-27 14:08:00,73.4,0.0,29.97,SSW,208,0.0,3.0,0,0.01,,OVC043,2.77,VWS V14.01,2013-07-27 18:08:00,
2013-07-27 14:13:00,73.6,0.0,29.97,South,185,2.0,3.0,0,0.01,,OVC043,2.77,VWS V14.01,2013-07-27 18:13:00,
2013-07-27 14:18:00,73.6,0.0,29.97,SSW,195,0.0,4.0,0,0.01,,OVC043,2.77,VWS V14.01,2013-07-27 18:18:00,
2013-07-27 14:23:00,74.2,0.0,29.97,South,188,0.0,4.0,0,0.01,,OVC043,2.77,VWS V14.01,2013-07-27 18:23:00,
2013-07-27 14:28:00,74.4,0.0,29.97,SW,219,0.0,4.0,0,0.01,,OVC043,2.77,VWS V14.01,2013-07-27 18:28:00,
2013-07-27 14:33:00,74.8,0.0,29.96,SSW,205,0.0,3.0,0,0.00,,OVC043,2.77,VWS V14.01,2013-07-27 18:33:00,
2013-07-27 14:38:00,74.9,0.0,29.96,South,172,0.0,3.0,0,0.00,,OVC043,2.77,VWS V14.01,2013-07-27 18:38:00,
2013-07-27 14:43:00,74.8,0.0,29.96,West,274,0.0,3.0,0,0.00,,OVC043,2.77,VWS V14.01,2013-07-27 18:43:00,
2013-07-27 14:48:00,75.0,0.0,29.96,West,274,0.0,3.0,0,0.00,,OVC043,2.77,VWS V14.01,2013-07-27 18:48:00,
2013-07-27 14:53:00,75.1,0.0,29.96,West,271,1.0,3.0,0,0.00,,OVC043,2.77,VWS V14.01,2013-07-27 18:53:00,
2013-07-27 14:58:00,75.3,0.0,29.96,SW,215,0.0,3.0,0,0.00,,OVC043,2.77,VWS V14.01,2013-07-27 18:58:00,
2013-07-27 15:03:00,75.3,0.0,29.96,SSW,203,0.0,1.0,0,0.00,,OVC043,2.77,VWS V14.01,2013-07-27 19:03:00,
2013-07-27 15:08:00,75.4,0.0,29.96,SSW,203,0.0,1.0,0,0.00,,OVC043,2.77,VWS V14.01,2013-07-27 19:08:00,
2013-07-27 15:13:00,75.4,0.0,29.96,SE,136,0.0,1.0,0,0.00,,OVC043,2.77,VWS V14.01,2013-07-27 19:13:00,
2013-07-27 15:18:00,75.8,0.0,29.95,SE,136,0.0,1.0,0,0.00,,OVC043,2.77,VWS V14.01,2013-07-27 19:18:00,
2013-07-27 15:23:00,75.7,0.0,29.95,SE,136,0.0,1.0,0,0.00,,OVC043,2.77,VWS V14.01,2013-07-27 19:23:00,
2013-07-27 15:28:00,75.6,0.0,29.96,SW,219,0.0,1.0,0,0.00,,OVC043,2.77,VWS V14.01,2013-07-27 19:28:00,
2013-07-27 15:33:00,75.8,0.0,29.96,SSE,159,3.0,4.0,0,0.00,,OVC043,2.77,VWS V14.01,2013-07-27 19:33:00,
2013-07-27 15:38:00,75.9,0.0,29.96,SSE,155,1.0,4.0,0,0.00,,OVC043,2.77,VWS V14.01,2013-07-27 19:38:00,
2013-07-27 15:43:00,76.2,0.0,29.96,SSW,203,1.0,4.0,0,0.00,,OVC043,2.77,VWS V14.01,2013-07-27 19:43:00,
2013-07-27 15:48:00,76.6,0.0,29.95,South,180,2.0,4.0,0,0.00,,OVC043,2.77,VWS V14.01,2013-07-27 19:48:00,
2013-07-27 15:53:00,76.8,0.0,29.95,SW,236,0.0,4.0,0,0.00,,OVC043,2.77,VWS V14.01,2013-07-27 19:53:00,
2013-07-27 15:58:00,77.1,0.0,29.94,SSW,193,0.0,4.0,0,0.00,,OVC043,2.77,VWS V14.01,2013-07-27 19:58:00,
2013-07-27 16:03:00,77.4,0.0,29.94,East,89,0.0,1.0,0,0.00,,OVC043,2.77,VWS V14.01,2013-07-27 20:03:00,
2013-07-27 16:08:00,77.2,0.0,29.94,SSE,165,1.0,2.0,0,0.00,,OVC043,2.77,VWS V14.01,2013-07-27 20:08:00,
2013-07-27 16:13:00,77.0,-3.8,29.94,SSW,194,2.0,3.0,4,0.00,,OVC043,2.77,VWS V14.01,2013-07-27 20:13:00,
2013-07-27 16:18:00,77.1,-3.7,29.94,SSW,212,0.0,4.0,4,0.00,,OVC043,2.77,VWS V14.01,2013-07-27 20:18:00,
2013-07-27 16:23:00,77.4,0.0,29.94,SSW,212,0.0,4.0,0,0.00,,OVC043,2.77,VWS V14.01,2013-07-27 20:23:00,
2013-07-27 16:28:00,77.6,1.4,29.94,SW,224,0.0,4.0,5,0.00,,OVC043,2.77,VWS V14.01,2013-07-27 20:28:00,
2013-07-27 16:33:00,77.5,20.9,29.94,SSE,167,0.0,1.0,12,0.00,,OVC043,2.77,VWS V14.01,2013-07-27 20:33:00,
2013-07-27 16:38:00,77.5,5.2,29.94,SSE,168,0.0,1.0,6,0.00,,OVC043,2.77,VWS V14.01,2013-07-27 20:38:00,
2013-07-27 16:43:00,77.5,-30.4,29.94,SSW,201,0.0,2.0,1,0.00,,OVC043,2.77,VWS V14.01,2013-07-27 20:43:00,
2013-07-27 16:48:00,77.5,0.0,29.94,SSW,210,0.0,2.0,0,0.00,,OVC043,2.77,VWS V14.01,2013-07-27 20:48:00,
2013-07-27 16:53:00,77.3,0.0,29.94,SSW,192,0.0,2.0,0,0.00,,OVC043,2.77,VWS V14.01,2013-07-27 20:53:00,
2013-07-27 16:58:00,77.2,0.0,29.94,SW,224,0.0,2.0,0,0.00,,OVC043,2.77,VWS V14.01,2013-07-27 20:58:00,
2013-07-27 17:03:00,77.3,0.0,29.94,SW,223,0.0,1.0,0,0.00,,OVC043,2.77,VWS V14.01,2013-07-27 21:03:00,
2013-07-27 17:08:00,77.1,-30.7,29.94,SW,222,0.0,1.0,1,0.00,,OVC043,2.77,VWS V14.01,2013-07-27 21:08:00,
2013-07-27 17:13:00,76.8,8.1,29.94,SW,222,0.0,1.0,7,0.00,,OVC043,2.77,VWS V14.01,2013-07-27 21:13:00,
2013-07-27 17:18:00,76.8,-3.9,29.95,SSW,210,1.0,2.0,4,0.00,,OVC043,2.77,VWS V14.01,2013-07-27 21:18:00,
2013-07-27 17:23:00,76.9,0.0,29.94,South,190,1.0,2.0,0,0.00,,OVC043,2.77,VWS V14.01,2013-07-27 21:23:00,
2013-07-27 17:28:00,76.7,-17.9,29.94,South,181,0.0,4.0,2,0.00,,OVC043,2.77,VWS V14.01,2013-07-27 21:28:00,
2013-07-27 17:33:00,76.6,-31.0,29.94,South,190,1.0,2.0,1,0.00,,OVC043,2.77,VWS V14.01,2013-07-27 21:33:00,
2013-07-27 17:38:00,76.3,0.0,29.94,SE,132,1.0,5.0,0,0.00,,OVC043,2.77,VWS V14.01,2013-07-27 21:38:00,
2013-07-27 17:43:00,76.2,0.0,29.94,SSW,198,0.0,5.0,0,0.00,,OVC043,2.77,VWS V14.01,2013-07-27 21:43:00,
2013-07-27 17:48:00,76.0,0.0,29.94,SSW,197,3.0,5.0,0,0.00,,OVC043,2.77,VWS V14.01,2013-07-27 21:48:00,
2013-07-27 17:53:00,75.7,0.0,29.93,SSW,212,1.0,6.0,0,0.00,,OVC043,2.77,VWS V14.01,2013-07-27 21:53:00,
2013-07-27 17:58:00,75.4,0.0,29.94,SSW,203,2.0,6.0,0,0.00,,OVC043,2.77,VWS V14.01,2013-07-27 21:58:00,
2013-07-27 18:03:00,75.3,0.0,29.94,SE,143,0.0,2.0,0,0.00,,OVC043,2.77,VWS V14.01,2013-07-27 22:03:00,
2013-07-27 18:08:00,75.1,0.0,29.94,WSW,242,0.0,6.0,0,0.00,,OVC043,2.77,VWS V14.01,2013-07-27 22:08:00,
2013-07-27 18:13:00,75.0,0.0,29.94,West,270,1.0,6.0,0,0.00,,OVC043,2.77,VWS V14.01,2013-07-27 22:13:00,
2013-07-27 18:18:00,74.9,0.0,29.94,SE,134,0.0,6.0,0,0.00,,OVC043,2.77,VWS V14.01,2013-07-27 22:18:00,
2013-07-27 18:23:00,74.8,0.0,29.94,SE,143,1.0,6.0,0,0.00,,OVC043,2.77,VWS V14.01,2013-07-27 22:23:00,
2013-07-27 18:28:00,74.8,0.0,29.94,South,184,1.0,6.0,0,0.00,,OVC043,2.77,VWS V14.01,2013-07-27 22:28:00,
2013-07-27 18:33:00,74.5,0.0,29.95,SSE,168,1.0,3.0,0,0.00,,OVC043,2.77,VWS V14.01,2013-07-27 22:33:00,
2013-07-27 18:38:00,74.5,0.0,29.94,SSW,193,0.0,3.0,0,0.00,,OVC043,2.77,VWS V14.01,2013-07-27 22:38:00,
2013-07-27 18:43:00,74.4,0.0,29.94,South,187,1.0,4.0,0,0.00,,OVC043,2.77,VWS V14.01,2013-07-27 22:43:00,
2013-07-27 18:48:00,74.5,0.0,29.94,WSW,243,1.0,4.0,0,0.00,,OVC043,2.77,VWS V14.01,2013-07-27 22:48:00,
2013-07-27 18:53:00,74.2,0.0,29.94,SSW,197,1.0,4.0,0,0.00,,OVC043,2.77,VWS V14.01,2013-07-27 22:53:00,
2013-07-27 18:58:00,74.2,0.0,29.95,SSW,205,0.0,4.0,0,0.00,,OVC043,2.77,VWS V14.01,2013-07-27 22:58:00,
2013-07-27 19:03:00,74.1,0.0,29.95,SW,226,1.0,1.0,0,0.00,,OVC043,2.77,VWS V14.01,2013-07-27 23:03:00,
2013-07-27 19:08:00,73.9,0.0,29.95,SW,227,0.0,4.0,0,0.00,,OVC043,2.77,VWS V14.01,2013-07-27 23:08:00,
2013-07-27 19:13:00,73.7,0.0,29.95,South,186,0.0,4.0,0,0.00,,OVC043,2.77,VWS V14.01,2013-07-27 23:13:00,
2013-07-27 19:18:00,73.7,0.0,29.95,South,189,0.0,4.0,0,0.00,,OVC043,2.77,VWS V14.01,2013-07-27 23:18:00,
2013-07-27 19:23:00,73.6,0.0,29.95,SW,227,0.0,4.0,0,0.00,,OVC043,2.77,VWS V14.01,2013-07-27 23:23:00,
2013-07-27 19:28:00,73.5,0.0,29.95,SW,222,0.0,4.0,0,0.00,,OVC043,2.77,VWS V14.01,2013-07-27 23:28:00,
2013-07-27 19:33:00,73.3,0.0,29.95,SSW,194,0.0,2.0,0,0.00,,OVC043,2.77,VWS V14.01,2013-07-27 23:33:00,
2013-07-27 19:38:00,73.1,0.0,29.95,SSW,193,0.0,2.0,0,0.00,,OVC043,2.77,VWS V14.01,2013-07-27 23:38:00,
2013-07-27 19:43:00,72.9,0.0,29.95,SSW,204,0.0,2.0,0,0.00,,OVC043,2.77,VWS V14.01,2013-07-27 23:43:00,
2013-07-27 19:48:00,72.7,0.0,29.95,SSW,203,1.0,2.0,0,0.00,,OVC043,2.77,VWS V14.01,2013-07-27 23:48:00,
2013-07-27 19:53:00,72.4,0.0,29.96,South,190,0.0,3.0,0,0.00,,OVC043,2.77,VWS V14.01,2013-07-27 23:53:00,
2013-07-27 19:58:00,72.2,0.0,29.95,South,190,0.0,3.0,0,0.00,,OVC043,2.77,VWS V14.01,2013-07-27 23:58:00,
2013-07-27 20:03:00,72.0,0.0,29.95,South,190,0.0,1.0,0,0.00,,OVC043,2.77,VWS V14.01,2013-07-28 00:03:00,
2013-07-27 20:08:00,71.9,0.0,29.95,South,190,0.0,1.0,0,0.00,,OVC043,2.77,VWS V14.01,2013-07-28 00:08:00,
2013-07-27 20:13:00,71.7,0.0,29.95,South,190,0.0,1.0,0,0.00,,OVC043,2.77,VWS V14.01,2013-07-28 00:13:00,
2013-07-27 20:18:00,71.5,0.0,29.96,South,190,0.0,1.0,0,0.00,,OVC043,2.77,VWS V14.01,2013-07-28 00:18:00,
2013-07-27 20:23:00,71.4,0.0,29.96,South,190,0.0,1.0,0,0.00,,OVC043,2.77,VWS V14.01,2013-07-28 00:23:00,
2013-07-27 20:28:00,71.2,0.0,29.97,South,190,0.0,1.0,0,0.00,,OVC043,2.77,VWS V14.01,2013-07-28 00:28:00,
2013-07-27 20:33:00,71.1,0.0,29.97,South,190,0.0,0.0,0,0.00,,OVC043,2.77,VWS V14.01,2013-07-28 00:33:00,
2013-07-27 20:38:00,71.0,0.0,29.97,South,190,0.0,0.0,0,0.00,,OVC043,2.77,VWS V14.01,2013-07-28 00:38:00,
2013-07-27 20:43:00,70.9,0.0,29.97,South,190,0.0,0.0,0,0.00,,OVC043,2.77,VWS V14.01,2013-07-28 00:43:00,
2013-07-27 20:48:00,70.8,0.0,29.97,South,190,0.0,0.0,0,0.00,,OVC043,2.77,VWS V14.01,2013-07-28 00:48:00,
2013-07-27 20:53:00,70.6,0.0,29.97,South,190,0.0,0.0,0,0.00,,OVC043,2.77,VWS V14.01,2013-07-28 00:53:00,
2013-07-27 20:58:00,70.5,0.0,29.97,South,190,0.0,0.0,0,0.00,,OVC043,2.77,VWS V14.01,2013-07-28 00:58:00,
2013-07-27 21:03:00,70.5,0.0,29.97,South,190,0.0,0.0,0,0.01,,OVC043,2.78,VWS V14.01,2013-07-28 01:03:00,
2013-07-27 21:08:00,70.5,0.0,29.97,South,190,0.0,0.0,0,0.02,,OVC043,2.79,VWS V14.01,2013-07-28 01:08:00,
2013-07-27 21:13:00,70.3,0.0,29.97,South,190,0.0,0.0,0,0.04,,OVC043,2.81,VWS V14.01,2013-07-28 01:13:00,
2013-07-27 21:18:00,70.2,0.0,29.97,South,190,0.0,0.0,0,0.05,,OVC043,2.82,VWS V14.01,2013-07-28 01:18:00,
2013-07-27 21:23:00,70.2,0.0,29.97,South,190,0.0,0.0,0,0.06,,OVC043,2.83,VWS V14.01,2013-07-28 01:23:00,
2013-07-27 21:28:00,70.2,0.0,29.97,South,190,0.0,0.0,0,0.07,,OVC043,2.84,VWS V14.01,2013-07-28 01:28:00,
2013-07-27 21:33:00,70.1,0.0,29.97,South,190,0.0,0.0,0,0.07,,OVC043,2.84,VWS V14.01,2013-07-28 01:33:00,
2013-07-27 21:38:00,70.1,0.0,29.97,South,190,0.0,0.0,0,0.07,,OVC043,2.84,VWS V14.01,2013-07-28 01:38:00,
2013-07-27 21:43:00,70.0,0.0,29.97,South,190,0.0,0.0,0,0.07,,OVC043,2.84,VWS V14.01,2013-07-28 01:43:00,
2013-07-27 21:48:00,70.1,0.0,29.98,South,190,0.0,0.0,0,0.07,,OVC043,2.84,VWS V14.01,2013-07-28 01:48:00,
2013-07-27 21:53:00,70.2,0.0,29.98,South,190,0.0,0.0,0,0.07,,OVC043,2.84,VWS V14.01,2013-07-28 01:53:00,
2013-07-27 21:58:00,70.1,0.0,29.98,South,190,0.0,0.0,0,0.07,,OVC043,2.84,VWS V14.01,2013-07-28 01:58:00,
2013-07-27 22:03:00,70.1,0.0,29.98,South,190,0.0,0.0,0,0.06,,OVC043,2.84,VWS V14.01,2013-07-28 02:03:00,
2013-07-27 22:08:00,70.1,0.0,29.98,South,190,0.0,0.0,0,0.06,,OVC043,2.84,VWS V14.01,2013-07-28 02:08:00,
2013-07-27 22:13:00,70.2,0.0,29.98,SSW,211,0.0,0.0,0,0.06,,OVC043,2.84,VWS V14.01,2013-07-28 02:13:00,
2013-07-27 22:18:00,70.2,0.0,29.98,SSW,211,0.0,1.0,0,0.06,,OVC043,2.84,VWS V14.01,2013-07-28 02:18:00,
2013-07-27 22:23:00,70.2,0.0,29.98,SSW,211,0.0,1.0,0,0.06,,OVC043,2.84,VWS V14.01,2013-07-28 02:23:00,
2013-07-27 22:28:00,70.1,0.0,29.98,SSW,211,0.0,1.0,0,0.06,,OVC043,2.84,VWS V14.01,2013-07-28 02:28:00,
2013-07-27 22:33:00,70.1,0.0,29.98,SSW,211,0.0,0.0,0,0.00,,OVC043,2.84,VWS V14.01,2013-07-28 02:33:00,
2013-07-27 22:38:00,70.2,0.0,29.98,SSW,211,0.0,0.0,0,0.00,,OVC043,2.84,VWS V14.01,2013-07-28 02:38:00,
2013-07-27 22:43:00,70.1,0.0,29.98,SSW,211,0.0,0.0,0,0.00,,OVC043,2.84,VWS V14.01,2013-07-28 02:43:00,
2013-07-27 22:44:00,70.1,0.0,29.98,SSW,211,0.0,0.0,0,0.00,,OVC043,2.84,VWS V14.01,2013-07-28 02:44:00,
2013-07-27 22:49:00,70.1,0.0,29.98,SSW,211,0.0,0.0,0,0.00,,OVC043,2.84,VWS V14.01,2013-07-28 02:49:00,
2013-07-27 22:54:00,70.1,0.0,29.98,SSW,211,0.0,0.0,0,0.00,,OVC043,2.84,VWS V14.01,2013-07-28 02:54:00,
2013-07-27 22:59:00,70.1,0.0,29.98,SSW,211,0.0,0.0,0,0.00,,OVC043,2.84,VWS V14.01,2013-07-28 02:59:00,
2013-07-27 23:04:00,70.1,0.0,29.98,SSW,211,0.0,0.0,0,0.00,,OVC043,2.84,VWS V14.01,2013-07-28 03:04:00,
2013-07-27 23:09:00,70.1,0.0,29.98,SSW,211,0.0,0.0,0,0.00,,OVC043,2.84,VWS V14.01,2013-07-28 03:09:00,
2013-07-27 23:14:00,70.1,0.0,29.98,SSW,211,0.0,0.0,0,0.00,,OVC043,2.84,VWS V14.01,2013-07-28 03:14:00,
2013-07-27 23:19:00,70.2,0.0,29.98,SSW,211,0.0,0.0,0,0.00,,OVC043,2.84,VWS V14.01,2013-07-28 03:19:00,
2013-07-27 23:24:00,70.3,0.0,29.98,SSW,211,0.0,0.0,0,0.00,,OVC043,2.84,VWS V14.01,2013-07-28 03:24:00,
2013-07-27 23:29:00,70.2,0.0,29.98,SSW,211,0.0,0.0,0,0.00,,OVC043,2.84,VWS V14.01,2013-07-28 03:29:00,
2013-07-27 23:34:00,70.2,0.0,29.98,SSW,211,0.0,0.0,0,0.00,,OVC043,2.84,VWS V14.01,2013-07-28 03:34:00,
2013-07-27 23:39:00,70.1,0.0,29.98,SSW,211,0.0,0.0,0,0.00,,OVC043,2.84,VWS V14.01,2013-07-28 03:39:00,
2013-07-27 23:44:00,70.0,0.0,29.97,SSW,211,0.0,0.0,0,0.00,,OVC043,2.84,VWS V14.01,2013-07-28 03:44:00,
2013-07-27 23:49:00,69.9,0.0,29.97,SSW,211,0.0,1.0,0,0.00,,OVC043,2.84,VWS V14.01,2013-07-28 03:49:00,
2013-07-27 23:54:00,69.8,0.0,29.97,SSW,211,0.0,1.0,0,0.00,,OVC043,2.84,VWS V14.01,2013-07-28 03:54:00,
2013-07-27 23:59:00,69.7,0.0,29.97,SSW,211,0.0,1.0,0,0.00,,OVC043,2.84,VWS V14.01,2013-07-28 03:59:00,